Time,TemperatureF,DewpointF,PressureIn,WindDirection,WindDirectionDegrees,WindSpeedMPH,WindSpeedGustMPH,Humidity,HourlyPrecipIn,Conditions,Clouds,dailyrainin,SoftwareType,DateUTC
2015-07-06 00:24:00,80.0,-99.9,-100.00,ESE,110,4.0,7.0,-999,-99.99,,,-99.99,,2015-07-06 05:24:00,
2015-07-06 00:34:00,80.0,-99.9,-100.00,ESE,110,4.0,7.0,-999,-99.99,,,-99.99,,2015-07-06 05:34:00,
2015-07-06 00:44:00,80.0,-99.9,-100.00,ESE,110,4.0,7.0,-999,-99.99,,,-99.99,,2015-07-06 05:44:00,
2015-07-06 00:50:00,80.0,-99.9,-100.00,SSE,160,13.0,16.0,-999,-99.99,,,-99.99,,2015-07-06 05:50:00,
2015-07-06 01:23:00,80.0,-99.9,-100.00,SSE,160,13.0,16.0,-999,-99.99,,,-99.99,,2015-07-06 06:23:00,
2015-07-06 01:34:00,80.0,-99.9,-100.00,SSE,160,13.0,16.0,-999,-99.99,,,-99.99,,2015-07-06 06:34:00,
2015-07-06 01:44:00,80.0,-99.9,-100.00,SSE,160,13.0,16.0,-999,-99.99,,,-99.99,,2015-07-06 06:44:00,
2015-07-06 01:50:00,82.0,-99.9,-100.00,South,180,13.0,16.0,-999,-99.99,,,-99.99,,2015-07-06 06:50:00,
2015-07-06 02:33:00,82.0,-99.9,-100.00,South,180,13.0,16.0,-999,-99.99,,,-99.99,,2015-07-06 07:33:00,
2015-07-06 02:44:00,82.0,-99.9,-100.00,South,180,13.0,16.0,-999,-99.99,,,-99.99,,2015-07-06 07:44:00,
2015-07-06 02:50:00,82.0,-99.9,-100.00,South,180,9.0,11.0,-999,-99.99,,,-99.99,,2015-07-06 07:50:00,
2015-07-06 03:23:00,82.0,-99.9,-100.00,South,180,9.0,11.0,-999,-99.99,,,-99.99,,2015-07-06 08:23:00,
2015-07-06 03:33:00,82.0,-99.9,-100.00,South,180,9.0,11.0,-999,-99.99,,,-99.99,,2015-07-06 08:33:00,
2015-07-06 03:44:00,82.0,-99.9,-100.00,South,180,9.0,11.0,-999,-99.99,,,-99.99,,2015-07-06 08:44:00,
2015-07-06 03:50:00,82.0,-99.9,-100.00,South,190,11.0,11.0,-999,-99.99,,,-99.99,,2015-07-06 08:50:00,
2015-07-06 04:23:00,82.0,-99.9,-100.00,South,190,11.0,11.0,-999,-99.99,,,-99.99,,2015-07-06 09:23:00,
2015-07-06 04:34:00,82.0,-99.9,-100.00,South,190,11.0,11.0,-999,-99.99,,,-99.99,,2015-07-06 09:34:00,
2015-07-06 04:44:00,82.0,-99.9,-100.00,South,190,11.0,11.0,-999,-99.99,,,-99.99,,2015-07-06 09:44:00,
2015-07-06 04:50:00,82.0,-99.9,-100.00,SSW,210,11.0,11.0,-999,-99.99,,,-99.99,,2015-07-06 09:50:00,
2015-07-06 05:23:00,82.0,-99.9,-100.00,SSW,210,11.0,11.0,-999,-99.99,,,-99.99,,2015-07-06 10:23:00,
2015-07-06 05:34:00,82.0,-99.9,-100.00,SSW,210,11.0,11.0,-999,-99.99,,,-99.99,,2015-07-06 10:34:00,
2015-07-06 05:44:00,82.0,-99.9,-100.00,SSW,210,11.0,11.0,-999,-99.99,,,-99.99,,2015-07-06 10:44:00,
2015-07-06 05:50:00,82.0,-99.9,-100.00,SSW,210,9.0,11.0,-999,-99.99,,,-99.99,,2015-07-06 10:50:00,
2015-07-06 06:23:00,82.0,-99.9,-100.00,SSW,210,9.0,11.0,-999,-99.99,,,-99.99,,2015-07-06 11:23:00,
2015-07-06 06:34:00,82.0,-99.9,-100.00,SSW,210,9.0,11.0,-999,-99.99,,,-99.99,,2015-07-06 11:34:00,
2015-07-06 06:44:00,82.0,-99.9,-100.00,SSW,210,9.0,11.0,-999,-99.99,,,-99.99,,2015-07-06 11:44:00,
2015-07-06 06:50:00,82.0,-99.9,-100.00,SW,220,9.0,11.0,-999,-99.99,,,-99.99,,2015-07-06 11:50:00,
2015-07-06 07:24:00,82.0,-99.9,-100.00,SW,220,9.0,11.0,-999,-99.99,,,-99.99,,2015-07-06 12:24:00,
2015-07-06 07:34:00,82.0,-99.9,-100.00,SW,220,9.0,11.0,-999,-99.99,,,-99.99,,2015-07-06 12:34:00,
2015-07-06 07:44:00,82.0,-99.9,-100.00,SW,220,9.0,11.0,-999,-99.99,,,-99.99,,2015-07-06 12:44:00,
2015-07-06 07:50:00,82.0,-99.9,-100.00,West,260,9.0,11.0,-999,-99.99,,,-99.99,,2015-07-06 12:50:00,
2015-07-06 08:23:00,82.0,-99.9,-100.00,West,260,9.0,11.0,-999,-99.99,,,-99.99,,2015-07-06 13:23:00,
2015-07-06 08:34:00,82.0,-99.9,-100.00,West,260,9.0,11.0,-999,-99.99,,,-99.99,,2015-07-06 13:34:00,
2015-07-06 08:44:00,82.0,-99.9,-100.00,West,260,9.0,11.0,-999,-99.99,,,-99.99,,2015-07-06 13:44:00,
2015-07-06 08:50:00,81.0,-99.9,-100.00,NW,320,9.0,11.0,-999,-99.99,,,-99.99,,2015-07-06 13:50:00,
2015-07-06 09:23:00,81.0,-99.9,-100.00,NW,320,9.0,11.0,-999,-99.99,,,-99.99,,2015-07-06 14:23:00,
2015-07-06 09:34:00,81.0,-99.9,-100.00,NW,320,9.0,11.0,-999,-99.99,,,-99.99,,2015-07-06 14:34:00,
2015-07-06 09:44:00,81.0,-99.9,-100.00,NW,320,9.0,11.0,-999,-99.99,,,-99.99,,2015-07-06 14:44:00,
2015-07-06 09:50:00,81.0,-99.9,-100.00,NNW,340,9.0,11.0,-999,-99.99,,,-99.99,,2015-07-06 14:50:00,
2015-07-06 10:44:00,81.0,-99.9,-100.00,NNW,340,9.0,11.0,-999,-99.99,,,-99.99,,2015-07-06 15:44:00,
2015-07-06 10:50:00,81.0,-99.9,-100.00,NNW,330,9.0,9.0,-999,-99.99,,,-99.99,,2015-07-06 15:50:00,
2015-07-06 11:23:00,81.0,-99.9,-100.00,NNW,330,9.0,9.0,-999,-99.99,,,-99.99,,2015-07-06 16:23:00,
2015-07-06 11:34:00,81.0,-99.9,-100.00,NNW,330,9.0,9.0,-999,-99.99,,,-99.99,,2015-07-06 16:34:00,
2015-07-06 11:44:00,81.0,-99.9,-100.00,NNW,330,9.0,9.0,-999,-99.99,,,-99.99,,2015-07-06 16:44:00,
2015-07-06 11:50:00,81.0,-99.9,-100.00,NNW,340,4.0,7.0,-999,-99.99,,,-99.99,,2015-07-06 16:50:00,
2015-07-06 12:24:00,81.0,-99.9,-100.00,NNW,340,4.0,7.0,-999,-99.99,,,-99.99,,2015-07-06 17:24:00,
2015-07-06 12:34:00,81.0,-99.9,-100.00,NNW,340,4.0,7.0,-999,-99.99,,,-99.99,,2015-07-06 17:34:00,
2015-07-06 12:44:00,81.0,-99.9,-100.00,NNW,340,4.0,7.0,-999,-99.99,,,-99.99,,2015-07-06 17:44:00,
2015-07-06 12:50:00,82.0,-99.9,-100.00,NNW,340,2.0,4.0,-999,-99.99,,,-99.99,,2015-07-06 17:50:00,
2015-07-06 13:34:00,82.0,-99.9,-100.00,NNW,340,2.0,4.0,-999,-99.99,,,-99.99,,2015-07-06 18:34:00,
2015-07-06 13:44:00,82.0,-99.9,-100.00,NNW,340,2.0,4.0,-999,-99.99,,,-99.99,,2015-07-06 18:44:00,
2015-07-06 13:50:00,84.0,-99.9,-100.00,North,0,0.0,2.0,-999,-99.99,,,-99.99,,2015-07-06 18:50:00,
2015-07-06 14:24:00,84.0,-99.9,-100.00,North,0,0.0,2.0,-999,-99.99,,,-99.99,,2015-07-06 19:24:00,
2015-07-06 14:34:00,84.0,-99.9,-100.00,North,0,0.0,2.0,-999,-99.99,,,-99.99,,2015-07-06 19:34:00,
2015-07-06 14:44:00,84.0,-99.9,-100.00,North,0,0.0,2.0,-999,-99.99,,,-99.99,,2015-07-06 19:44:00,
2015-07-06 14:50:00,85.0,-99.9,-100.00,SW,230,2.0,4.0,-999,-99.99,,,-99.99,,2015-07-06 19:50:00,
2015-07-06 15:23:00,85.0,-99.9,-100.00,SW,230,2.0,4.0,-999,-99.99,,,-99.99,,2015-07-06 20:23:00,
2015-07-06 15:34:00,85.0,-99.9,-100.00,SW,230,2.0,4.0,-999,-99.99,,,-99.99,,2015-07-06 20:34:00,
2015-07-06 15:44:00,85.0,-99.9,-100.00,SW,230,2.0,4.0,-999,-99.99,,,-99.99,,2015-07-06 20:44:00,
2015-07-06 15:50:00,86.0,-99.9,-100.00,SSW,210,4.0,7.0,-999,-99.99,,,-99.99,,2015-07-06 20:50:00,
2015-07-06 16:23:00,86.0,-99.9,-100.00,SSW,210,4.0,7.0,-999,-99.99,,,-99.99,,2015-07-06 21:23:00,
2015-07-06 16:34:00,86.0,-99.9,-100.00,SSW,210,4.0,7.0,-999,-99.99,,,-99.99,,2015-07-06 21:34:00,
2015-07-06 16:44:00,86.0,-99.9,-100.00,SSW,210,4.0,7.0,-999,-99.99,,,-99.99,,2015-07-06 21:44:00,
2015-07-06 17:23:00,86.0,-99.9,-100.00,SW,220,4.0,7.0,-999,-99.99,,,-99.99,,2015-07-06 22:23:00,
2015-07-06 17:34:00,86.0,-99.9,-100.00,SW,220,4.0,7.0,-999,-99.99,,,-99.99,,2015-07-06 22:34:00,
2015-07-06 17:44:00,86.0,-99.9,-100.00,SW,220,4.0,7.0,-999,-99.99,,,-99.99,,2015-07-06 22:44:00,
2015-07-06 18:23:00,86.0,-99.9,-100.00,WSW,250,4.0,4.0,-999,-99.99,,,-99.99,,2015-07-06 23:23:00,
2015-07-06 18:34:00,86.0,-99.9,-100.00,WSW,250,4.0,4.0,-999,-99.99,,,-99.99,,2015-07-06 23:34:00,
2015-07-06 18:50:00,86.0,-99.9,-100.00,SSW,210,4.0,4.0,-999,-99.99,,,-99.99,,2015-07-06 23:50:00,
2015-07-06 19:23:00,86.0,-99.9,-100.00,SSW,210,4.0,4.0,-999,-99.99,,,-99.99,,2015-07-07 00:23:00,
2015-07-06 19:34:00,86.0,-99.9,-100.00,SSW,210,4.0,4.0,-999,-99.99,,,-99.99,,2015-07-07 00:34:00,
2015-07-06 19:44:00,86.0,-99.9,-100.00,SSW,210,4.0,4.0,-999,-99.99,,,-99.99,,2015-07-07 00:44:00,
2015-07-06 19:50:00,85.0,-99.9,-100.00,SSW,210,4.0,7.0,-999,-99.99,,,-99.99,,2015-07-07 00:50:00,
2015-07-06 20:23:00,85.0,-99.9,-100.00,SSW,210,4.0,7.0,-999,-99.99,,,-99.99,,2015-07-07 01:23:00,
2015-07-06 20:33:00,85.0,-99.9,-100.00,SSW,210,4.0,7.0,-999,-99.99,,,-99.99,,2015-07-07 01:33:00,
2015-07-06 20:45:00,85.0,-99.9,-100.00,SSW,210,4.0,7.0,-999,-99.99,,,-99.99,,2015-07-07 01:45:00,